Vorticity
20 -8 -1 -0 5 2 11 8 8 5 -1 9 3 6 8 4 3 3 4 5 5 5 6 6 7 6 7 7 7 6 7 6 5 4 4 3 2 4 4 3 4 5 4
10 15 5 2 12 8 3 1 9 4 3 5 8 4 8 6 4 3 3 3 4 5 5 6 7 7 4 5 6 7 6 7 6 4 3 2 3 4 4 3 4 4 3
5 2 2 2 4 7 8 6 5 1 11 6 2 6 4 8 3 4 4 3 3 4 5 5 6 7 8 4 6 8 5 6 5 4 3 2 3 3 4 4 4 5 3
0 8 9 5 2 -0 3 6 10 10 1 -2 9 7 4 5 8 21 2 3 4 4 4 4 5 6 6 9 2 3 5 5 5 4 3 3 4 4 6 4 3 4 4
2 4 3 1 -3 1 5 9 7 9 8 7 3 4 3 8 1 3 13 18 1 4 4 5 4 5 6 6 7 5 6 6 5 5 5 5 5 4 6 2 1 7 13
10 9 -1 -1 5 3 6 8 8 11 11 10 9 8 10 4 10 7 7 3 1 14 1 6 5 4 4 5 7 9 7 4 6 4 4 5 7 4 2 1 3 8 1
3 4 -1 3 10 9 7 7 6 10 10 9 12 13 9 4 9 -0 2 46 -13 13 8 -6 6 3 4 4 5 5 7 8 5 3 3 7 5 4 0 6 -7 3 4
5 -3 3 7 3 4 6 12 9 5 14 5 11 10 12 12 7 5 5 11 -4 21 2 -2 13 0 10 3 4 5 6 7 7 4 6 9 7 -3 5 3 5 9 4
4 -1 -1 8 10 9 8 13 11 1 0 7 13 12 15 11 10 8 6 17 7 16 4 17 -1 2 11 -5 2 9 7 5 7 9 13 3 -2 -5 -1 11 10 2 7
2 10 3 12 15 15 13 13 9 11 6 9 9 9 2 18 5 17 13 25 18 5 13 5 -5 13 -9 -16 11 3 9 7 6 9 4 1 -3 0 -4 -2 6 13 9
-1 9 15 14 17 17 12 8 4 2 4 4 13 -3 10 15 11 8 16 29 4 9 23 15 -16 14 12 -8 5 12 7 3 5 9 -4 2 -0 1 -3 18 2 3 8
17 24 21 7 26 24 18 8 8 9 15 16 7 13 -3 15 8 17 13 9 -4 -2 29 13 26 13 4 1 5 1 9 5 7 2 -7 -4 4 2 3 -11 5 6 22
25 5 19 33 25 21 27 19 13 30 29 5 11 7 30 22 12 11 18 10 6 20 6 33 24 23 11 -4 1 5 11 2 7 5 -6 -3 6 5 -5 3 4 24 20
24 22 2 -14 27 -10 29 36 46 32 41 31 30 20 5 23 20 7 2 9 23 -10 32 9 8 49 10 18 10 8 13 -8 3 -14 11 -5 14 -4 -5 16 10 21 -1
4 17 23 30 -6 21 12 14 25 12 16 12 17 31 30 18 -4 19 12 19 10 22 16 -14 9 11 8 17 -14 3 10 5 5 19 2 2 -16 -5 20 8 18 19 -19
10 4 2 -2 51 33 13 -4 -5 -2 0 7 20 5 -2 5 -0 15 13 7 20 25 26 31 22 -6 -3 23 30 44 11 34 32 6 14 11 5 11 10 -1 7 2 29
6 8 6 7 4 1 3 9 29 21 7 -2 -0 12 18 30 36 32 -17 22 22 23 13 1 -5 30 21 17 3 20 30 11 31 19 10 19 9 8 21 18 14 18 12
6 7 7 6 5 6 4 5 7 6 6 3 1 23 16 -20 -10 6 24 32 33 37 48 9 -30 25 11 23 29 7 5 -10 2 -9 8 26 21 16 -1 -1 20 21 24
9 8 8 8 8 7 7 7 6 6 5 5 6 6 5 4 9 11 0 3 -7 -2 0 12 12 -3 -3 -2 11 8 32 27 15 16 24 22 23 30 3 -3 14 11 16
6 7 7 7 6 6 6 6 6 6 7 7 7 7 6 6 7 6 6 9 9 6 4 3 3 6 1 10 1 1 3 -4 22 12 31 -3 22 12 35 -9 -10 17 3
8 8 8 9 10 12 12 14 13 13 13 9 6 5 6 7 7 9 8 6 7 7 6 7 6 6 6 8 7 6 10 9 1 -10 18 -4 18 19 -7 7 14 15 24
6 7 8 8 9 10 10 11 11 10 12 13 17 20 20 17 10 6 6 7 9 11 8 8 8 7 8 7 7 6 8 6 5 13 12 -6 -2 2 21 -5 13 28 3
8 9 10 10 10 9 9 9 8 8 8 7 5 7 10 14 17 17 17 17 15 11 7 6 8 8 7 10 13 13 9 14 -2 6 1 2 14 -5 15 6 10 4 -3
11 10 8 9 11 12 11 11 12 11 11 10 10 10 9 6 6 9 12 15 16 17 20 19 19 14 5 8 9 13 16 13 10 5 -5 11 1 13 -5 -1 14 22 -5
6 6 9 12 11 10 10 11 10 10 11 11 12 12 12 12 12 11 9 6 6 10 14 19 22 21 18 20 12 12 12 16 12 1 15 -6 12 -6 7 -4 21 19 14
14 15 15 13 12 12 10 9 11 11 10 11 10 11 12 12 12 12 13 12 12 10 4 4 8 16 20 21 15 15 11 11 14 -2 9 22 1 14 -4 13 31 -24 -1
Height
3126 3127 3128 3128 3129 3129 3129 3130 3130 3130 3131 3132 3132 3133 3134 3135 3135 3135 3136 3136 3136 3137 3137 3138 3138 3139 3140 3140 3140 3141 3142 3142 3143 3143 3143 3143 3143 3143 3142 3141 3141 3139 3138
3119 3121 3121 3124 3126 3125 3126 3125 3126 3126 3126 3127 3127 3128 3129 3129 3130 3131 3131 3131 3133 3133 3134 3134 3135 3136 3136 3137 3138 3138 3139 3140 3140 3140 3141 3141 3141 3141 3141 3139 3139 3137 3135
3114 3115 3116 3117 3119 3120 3119 3120 3121 3122 3121 3122 3122 3122 3122 3124 3124 3126 3126 3126 3127 3129 3129 3129 3130 3131 3132 3133 3133 3134 3135 3136 3137 3137 3137 3137 3137 3137 3137 3137 3136 3135 3133
3108 3109 3109 3111 3112 3113 3114 3114 3114 3115 3115 3115 3116 3115 3115 3115 3118 3118 3119 3120 3122 3122 3124 3125 3125 3126 3127 3128 3129 3130 3132 3132 3133 3134 3134 3134 3134 3133 3133 3133 3132 3130 3129
3102 3103 3104 3105 3106 3105 3106 3106 3106 3106 3107 3107 3107 3107 3107 3108 3109 3110 3111 3113 3116 3117 3119 3120 3120 3120 3121 3122 3124 3125 3127 3128 3128 3129 3129 3130 3129 3129 3129 3129 3128 3126 3124
3096 3096 3096 3097 3098 3096 3097 3098 3097 3097 3097 3098 3098 3098 3097 3099 3099 3100 3101 3103 3106 3107 3111 3114 3115 3115 3115 3117 3118 3119 3120 3122 3123 3123 3124 3124 3124 3124 3124 3124 3123 3122 3120
3088 3089 3088 3088 3089 3088 3088 3088 3088 3088 3087 3089 3088 3088 3087 3087 3088 3090 3091 3092 3095 3099 3101 3105 3106 3107 3110 3109 3111 3114 3115 3116 3118 3119 3119 3120 3119 3119 3119 3118 3118 3118 3116
3081 3081 3079 3078 3079 3079 3078 3079 3079 3079 3079 3080 3078 3079 3074 3075 3075 3080 3082 3084 3086 3089 3089 3092 3098 3101 3103 3101 3104 3107 3109 3110 3111 3112 3113 3113 3114 3114 3114 3113 3113 3112 3111
3072 3071 3070 3069 3068 3068 3068 3069 3069 3069 3069 3069 3069 3069 3066 3062 3066 3065 3070 3072 3076 3080 3081 3084 3088 3091 3093 3094 3096 3099 3101 3103 3104 3105 3106 3107 3107 3107 3108 3108 3107 3106 3106
3064 3062 3060 3059 3058 3058 3057 3058 3059 3059 3059 3058 3059 3058 3058 3057 3056 3054 3054 3059 3064 3066 3070 3073 3076 3080 3080 3082 3085 3089 3093 3096 3097 3098 3098 3099 3100 3100 3101 3101 3101 3100 3100
3055 3053 3051 3050 3048 3047 3047 3047 3048 3049 3049 3049 3048 3048 3049 3049 3048 3046 3047 3049 3050 3056 3057 3061 3062 3067 3070 3074 3078 3081 3084 3086 3086 3088 3088 3088 3090 3092 3093 3094 3093 3093 3093
3046 3043 3042 3040 3038 3036 3036 3036 3037 3037 3037 3038 3038 3038 3037 3038 3037 3037 3037 3040 3039 3043 3045 3048 3050 3053 3060 3063 3066 3067 3070 3071 3072 3076 3079 3081 3082 3083 3083 3084 3085 3085 3085
3037 3037 3034 3032 3029 3027 3025 3026 3026 3026 3027 3027 3028 3027 3028 3027 3028 3028 3028 3030 3029 3031 3033 3035 3036 3042 3049 3053 3055 3057 3060 3063 3065 3067 3069 3072 3074 3075 3074 3075 3077 3076 3078
3031 3029 3028 3024 3022 3021 3017 3015 3014 3014 3015 3014 3016 3017 3016 3017 3018 3019 3020 3021 3019 3021 3023 3025 3030 3033 3039 3043 3046 3048 3050 3052 3054 3057 3058 3061 3064 3065 3065 3065 3067 3069 3069
3023 3023 3022 3019 3016 3013 3011 3007 3006 3006 3006 3007 3007 3006 3007 3009 3010 3011 3011 3012 3012 3011 3013 3018 3020 3026 3030 3032 3034 3037 3039 3042 3044 3045 3047 3049 3053 3055 3055 3057 3060 3062 3060
3022 3019 3017 3014 3010 3007 3006 3003 3001 2999 3000 3000 3000 3000 3000 2999 3001 3002 3002 3002 3002 3003 3003 3010 3012 3016 3018 3021 3023 3025 3028 3028 3030 3033 3035 3038 3041 3044 3044 3046 3049 3051 3053
3017 3015 3013 3010 3007 3006 3003 3000 2996 2995 2995 2994 2992 2992 2993 2992 2993 2994 2994 2994 2994 2994 2995 3000 3003 3007 3008 3010 3012 3013 3015 3017 3017 3020 3023 3025 3028 3031 3033 3036 3038 3040 3043
3013 3011 3008 3005 3002 3000 2997 2996 2994 2992 2991 2990 2990 2988 2987 2986 2986 2985 2984 2986 2986 2988 2988 2990 2993 2995 2998 2999 3000 3002 3004 3006 3007 3009 3011 3013 3015 3018 3021 3024 3028 3031 3033
3010 3007 3004 3001 2997 2995 2993 2991 2989 2987 2986 2985 2983 2982 2981 2980 2980 2979 2978 2978 2977 2979 2981 2980 2983 2985 2987 2990 2991 2994 2994 2996 2998 3000 2999 3000 3003 3005 3008 3014 3017 3020 3024
3005 3002 2998 2995 2992 2989 2987 2984 2983 2981 2979 2977 2976 2974 2973 2972 2971 2970 2970 2970 2970 2971 2972 2973 2975 2976 2978 2981 2982 2985 2986 2988 2989 2991 2991 2992 2994 2997 3001 3003 3007 3012 3015
2998 2994 2991 2987 2984 2981 2979 2977 2974 2972 2970 2969 2967 2965 2963 2961 2959 2960 2959 2960 2960 2961 2962 2962 2963 2964 2966 2969 2971 2974 2975 2977 2979 2981 2983 2984 2988 2990 2993 2995 2998 3001 3004
2989 2985 2981 2977 2974 2969 2966 2963 2961 2959 2958 2956 2955 2954 2952 2951 2949 2946 2945 2946 2948 2949 2950 2950 2951 2952 2953 2956 2959 2960 2962 2965 2968 2972 2974 2976 2980 2982 2985 2987 2992 2995 2998
2978 2973 2969 2965 2962 2958 2954 2951 2949 2947 2945 2942 2940 2939 2938 2937 2936 2935 2934 2933 2933 2932 2933 2935 2936 2938 2939 2941 2944 2947 2950 2953 2955 2960 2964 2964 2969 2971 2974 2978 2982 2986 2989
2971 2966 2962 2957 2953 2950 2945 2941 2938 2936 2934 2931 2929 2926 2923 2923 2921 2919 2919 2919 2920 2920 2921 2921 2921 2922 2924 2927 2931 2933 2938 2941 2942 2946 2950 2949 2954 2959 2965 2967 2971 2975 2978
2963 2958 2954 2949 2945 2942 2937 2932 2928 2926 2924 2922 2919 2917 2913 2911 2909 2907 2903 2902 2903 2905 2906 2905 2906 2907 2909 2913 2916 2919 2922 2926 2928 2933 2938 2939 2941 2948 2952 2956 2959 2963 2967
2954 2949 2945 2941 2936 2932 2928 2924 2918 2913 2910 2907 2905 2903 2901 2898 2897 2896 2892 2890 2889 2890 2890 2893 2894 2894 2895 2896 2899 2903 2906 2909 2914 2917 2923 2927 2930 2936 2937 2941 2947 2950 2954